Spokane Fairchild, WA
on Saturday, December 29, 2012

Saturday
Previous Day Next Day
Daily Summary
 ActualAverage (KGEG)Record (KGEG)
Temperature
Mean Temperature °F 27°F  
Max Temperature 23°F 32°F 58°F (1917)
Min Temperature 14°F 22°F -21°F (1968)
Degree Days
Heating Degree Days 46 38  
Month to date heating degree days 1091  
Since 1 July heating degree days 2758  
Cooling Degree Days 0 0  
Month to date cooling degree days 0  
Year to date cooling degree days 450  
Moisture
Dew Point 20°F   
Average Humidity 100    
Maximum Humidity 100    
Minimum Humidity 99    
Precipitation
Precipitation 0.01 in 0.06 in 0.80 in (1904)
Month to date precipitation 2.17  
Year to date precipitation 16.43  
Snow
Snow 0.00 in 0.50 in 8.30 in (2008)
Month to date snowfall 13.6  
Since 1 July snowfall 21.1  
Snow Depth in   
Wind
Wind Speed 2 mph   
Max Wind Speed 7 mph   
Max Gust Speed mph   
Visibility 2 miles   
Events Fog , Snow   

Key: T is trace of precipitation, MM is missing value
Source: NWS Daily Summary
Time(PST)TemperatureDew PointHumidity Pressure Visibility Wind DirectionWind SpeedGust SpeedPrecipitationEvents Conditions
12:03 AM 23.0°F 23.0°F 100% 30.14 in 3.0 miles NNE 2.3 mph - N/A   Overcast
12:18 AM 23.0°F 23.0°F 100% 30.14 in 2.5 miles Calm Calm - N/A   Scattered Clouds
12:23 AM 23.0°F 23.0°F 100% 30.14 in 1.5 miles NE 2.3 mph - N/A   Partly Cloudy
12:28 AM 23.0°F 23.0°F 100% 30.14 in 1.2 miles NE 2.3 mph - N/A   Scattered Clouds
12:33 AM 21.2°F 21.2°F 100% 30.14 in 1.2 miles NE 1.2 mph - N/A   Partly Cloudy
12:38 AM 21.2°F 21.2°F 100% 30.14 in 1.5 miles NNE 1.2 mph - N/A   Partly Cloudy
12:43 AM 21.2°F 21.2°F 100% 30.14 in 1.8 miles Calm Calm - N/A   Partly Cloudy
12:53 AM 21.2°F 21.2°F 100% 30.14 in 1.2 miles Calm Calm - N/A   Partly Cloudy
12:58 AM 21.6°F 21.6°F 100% 30.24 in 1.2 miles Calm Calm - N/A   Clear
1:13 AM 21.2°F 21.2°F 100% 30.14 in 1.2 miles Calm Calm - N/A   Clear
1:23 AM 21.2°F 21.2°F 100% 30.14 in 1.0 miles East 1.2 mph - N/A   Clear
1:38 AM 21.2°F 21.2°F 100% 30.14 in 0.8 miles ENE 2.3 mph - N/A   Partly Cloudy
1:43 AM 19.4°F 19.4°F 100% 30.14 in 1.0 miles ENE 2.3 mph - N/A   Scattered Clouds
1:48 AM 19.4°F 19.4°F 100% 30.14 in 1.0 miles NE 2.3 mph - N/A   Scattered Clouds
1:53 AM 19.4°F 19.4°F 100% 30.14 in 1.2 miles NE 2.3 mph - N/A   Partly Cloudy
1:58 AM 19.9°F 19.9°F 100% 30.24 in 1.0 miles NE 2.3 mph - N/A   Partly Cloudy
2:03 AM 19.4°F 19.4°F 100% 30.14 in 0.8 miles NE 2.3 mph - N/A   Partly Cloudy
2:08 AM 19.4°F 19.4°F 100% 30.14 in 1.0 miles NE 2.3 mph - N/A   Partly Cloudy
2:18 AM 19.4°F 19.4°F 100% 30.14 in 1.0 miles ENE 2.3 mph - N/A   Clear
2:21 AM 19.4°F 19.4°F 100% 30.14 in 0.8 miles ENE 2.3 mph - N/A Snow Light Snow
2:26 AM 19.4°F 19.4°F 100% 30.14 in 0.5 miles ENE 2.3 mph - N/A Fog , Snow Light Freezing Fog
2:32 AM 19.4°F 19.4°F 100% 30.14 in 0.5 miles East 2.3 mph - N/A Fog Light Freezing Fog
2:36 AM 19.4°F 19.4°F 100% 30.14 in 0.5 miles East 2.3 mph - N/A Fog , Snow Light Freezing Fog
2:41 AM 19.4°F 19.4°F 100% 30.14 in 0.8 miles East 2.3 mph - N/A Snow Light Snow
2:45 AM 19.4°F 19.4°F 100% 30.14 in 0.8 miles East 2.3 mph - N/A Snow Light Snow
2:51 AM 19.4°F 19.4°F 100% 30.14 in 0.8 miles East 2.3 mph - N/A   Mist
2:52 AM 19.4°F 19.4°F 100% 30.14 in 0.8 miles East 2.3 mph - N/A   Light Freezing Drizzle
2:58 AM 19.2°F 19.2°F 100% 30.24 in 0.8 miles ESE 2.3 mph - 0.00 in   Light Freezing Drizzle
3:03 AM 19.4°F 19.4°F 100% 30.14 in 0.5 miles East 2.3 mph - N/A Fog Light Freezing Drizzle
3:13 AM 19.4°F 19.4°F 100% 30.14 in 0.8 miles East 2.3 mph - N/A   Light Freezing Drizzle
3:21 AM 19.4°F 19.4°F 100% 30.14 in 0.8 miles East 2.3 mph - N/A   Mist
3:31 AM 19.4°F 19.4°F 100% 30.14 in 0.5 miles East 2.3 mph - N/A Fog Light Freezing Fog
3:36 AM 19.4°F 19.4°F 100% 30.14 in 0.8 miles East 2.3 mph - N/A   Mist
3:41 AM 21.2°F 21.2°F 100% 30.13 in 0.8 miles East 2.3 mph - N/A   Mist
3:58 AM 20.5°F 20.5°F 100% 30.23 in 0.8 miles ENE 2.3 mph - 0.00 in   Mist
4:03 AM 21.2°F 21.2°F 100% 30.13 in 0.5 miles ENE 2.3 mph - N/A Fog Light Freezing Fog
4:28 AM 21.2°F 21.2°F 100% 30.13 in 0.8 miles SE 1.2 mph - N/A   Mist
4:38 AM 19.4°F 19.4°F 100% 30.13 in 1.0 miles ESE 1.2 mph - N/A   Mist
4:48 AM 21.2°F 21.2°F 100% 30.13 in 0.8 miles Calm Calm - N/A   Mist
4:58 AM 20.7°F 20.7°F 100% 30.24 in 0.8 miles ESE 1.2 mph - N/A   Mist
5:01 AM 21.2°F 21.2°F 100% 30.13 in 0.5 miles ESE 2.3 mph - N/A Fog , Snow Light Freezing Fog
5:06 AM 21.2°F 21.2°F 100% 30.13 in 0.5 miles ESE 2.3 mph - N/A Fog , Snow Light Freezing Fog
5:16 AM 21.2°F 21.2°F 100% 30.13 in 0.5 miles SSE 2.3 mph - N/A Fog Light Freezing Fog
5:18 AM 21.2°F 21.2°F 100% 30.13 in 0.5 miles SSE 2.3 mph - N/A Fog , Snow Light Freezing Fog
5:33 AM 19.4°F 19.4°F 100% 30.13 in 0.8 miles SSE 3.5 mph - N/A Snow Light Snow
5:38 AM 17.6°F 17.6°F 100% 30.13 in 0.8 miles SSE 3.5 mph - N/A Snow Light Snow
5:43 AM 17.6°F 17.6°F 100% 30.13 in 0.5 miles SSE 3.5 mph - N/A Fog , Snow Light Freezing Fog
5:53 AM 17.6°F 17.6°F 100% 30.13 in 0.8 miles SE 3.5 mph - N/A Snow Light Snow
5:54 AM 19.4°F 19.4°F 100% 30.13 in 0.8 miles SE 2.3 mph - N/A   Mist
5:58 AM 19.4°F 19.4°F 100% 30.24 in 0.8 miles SSE 2.3 mph - 0.00 in   Mist
6:03 AM 19.4°F 19.4°F 100% 30.13 in 1.0 miles SSE 4.6 mph - N/A   Mist
6:08 AM 19.4°F 19.4°F 100% 30.13 in 0.8 miles SSE 6.9 mph - N/A   Mist
6:09 AM 19.4°F 19.4°F 100% 30.13 in 0.8 miles SSE 5.8 mph - N/A   Light Freezing Drizzle
6:10 AM 19.4°F 19.4°F 100% 30.13 in 0.8 miles SSE 5.8 mph - N/A Snow Light Snow
6:15 AM 19.4°F 19.4°F 100% 30.14 in 0.2 miles WSW 1.2 mph - N/A Fog , Snow Light Freezing Fog
6:20 AM 19.4°F 19.4°F 100% 30.14 in 0.5 miles SW 4.6 mph - N/A Fog , Snow Light Freezing Fog
6:25 AM 19.4°F 19.4°F 100% 30.14 in 0.5 miles SW 4.6 mph - N/A Fog Light Freezing Fog
6:26 AM 19.4°F 19.4°F 100% 30.14 in 0.5 miles SW 3.5 mph - N/A Fog Light Freezing Drizzle
6:28 AM 19.4°F 19.4°F 100% 30.14 in 0.2 miles WSW 3.5 mph - N/A Fog , Snow Light Freezing Fog
6:33 AM 17.6°F 17.6°F 100% 30.14 in 0.5 miles SW 2.3 mph - N/A Fog , Snow Light Freezing Fog
6:38 AM 17.6°F 17.6°F 100% 30.14 in 0.5 miles WSW 2.3 mph - N/A Fog , Snow Light Freezing Fog
6:46 AM 17.6°F 17.6°F 100% 30.14 in 0.5 miles SW 2.3 mph - N/A Fog Light Freezing Fog
6:47 AM 17.6°F 17.6°F 100% 30.14 in 0.5 miles SW 2.3 mph - N/A Fog Light Freezing Drizzle
6:58 AM 18.3°F 18.3°F 100% 30.25 in 0.5 miles South 1.2 mph - 0.00 in Fog Light Freezing Drizzle
7:13 AM 19.4°F 19.4°F 100% 30.14 in 0.5 miles Calm Calm - N/A Fog Light Freezing Drizzle
7:14 AM 19.4°F 19.4°F 100% 30.14 in 0.5 miles WSW 1.2 mph - N/A Fog Light Freezing Fog
7:19 AM 19.4°F 19.4°F 100% 30.13 in 0.2 miles Calm Calm - N/A Fog Light Freezing Fog
7:22 AM 19.4°F 19.4°F 100% 30.13 in 0.2 miles SSE 2.3 mph - N/A Fog , Snow Light Freezing Fog
7:32 AM 19.4°F 19.4°F 100% 30.13 in 0.2 miles South 5.8 mph - N/A Fog , Snow Light Freezing Fog
7:52 AM 19.4°F 19.4°F 100% 30.13 in 0.5 miles South 5.8 mph - N/A Fog , Snow Light Freezing Fog
7:58 AM 19.8°F 19.6°F 99% 30.24 in 0.5 miles South 4.6 mph - 0.00 in Fog , Snow Light Freezing Fog
8:03 AM 19.4°F 19.4°F 100% 30.13 in 0.5 miles South 3.5 mph - N/A Fog , Snow Light Freezing Fog
8:08 AM 19.4°F 19.4°F 100% 30.13 in 0.8 miles SSW 5.8 mph - N/A Snow Light Snow
8:14 AM 21.2°F 21.2°F 100% 30.13 in 0.8 miles South 5.8 mph - N/A   Mist
8:15 AM 21.2°F 21.2°F 100% 30.13 in 0.8 miles South 4.6 mph - N/A   Light Freezing Drizzle
8:20 AM 21.2°F 21.2°F 100% 30.13 in 0.8 miles South 4.6 mph - N/A   Light Freezing Drizzle
8:25 AM 21.2°F 21.2°F 100% 30.13 in 0.5 miles South 5.8 mph - N/A Fog Light Freezing Drizzle
8:33 AM 21.2°F 21.2°F 100% 30.13 in 0.5 miles South 4.6 mph - N/A Fog , Snow Light Freezing Fog
8:38 AM 21.2°F 21.2°F 100% 30.13 in 0.5 miles South 4.6 mph - N/A Fog Light Freezing Fog
8:39 AM 21.2°F 21.2°F 100% 30.13 in 0.5 miles South 4.6 mph - N/A Fog Light Freezing Drizzle
8:49 AM 21.2°F 21.2°F 100% 30.14 in 0.8 miles South 5.8 mph - N/A   Light Freezing Drizzle
8:54 AM 21.2°F 21.2°F 100% 30.14 in 0.8 miles South 5.8 mph - N/A   Light Freezing Drizzle
8:58 AM 21.2°F 21.2°F 100% 30.25 in 1.0 miles South 4.6 mph - 0.00 in   Light Freezing Drizzle
9:03 AM 21.2°F 21.2°F 100% 30.14 in 1.0 miles SSW 4.6 mph - N/A Snow Light Snow
9:08 AM 21.2°F 21.2°F 100% 30.14 in 1.5 miles SSW 4.6 mph - N/A Snow Light Snow
9:13 AM 21.2°F 21.2°F 100% 30.14 in 1.2 miles SSW 4.6 mph - N/A Snow Light Snow
9:14 AM 21.2°F 21.2°F 100% 30.14 in 1.2 miles SSW 3.5 mph - N/A   Overcast
9:15 AM 21.2°F 21.2°F 100% 30.14 in 1.2 miles SSW 3.5 mph - N/A   Light Freezing Drizzle
9:17 AM 21.2°F 21.2°F 100% 30.14 in 1.2 miles South 4.6 mph - N/A Snow Light Snow
9:22 AM 21.2°F 21.2°F 100% 30.14 in 1.8 miles South 5.8 mph - N/A Snow Light Snow
9:27 AM 21.2°F 21.2°F 100% 30.14 in 1.2 miles SSW 5.8 mph - N/A Snow Light Snow
9:37 AM 21.2°F 21.2°F 100% 30.14 in 2.0 miles South 4.6 mph - N/A Snow Light Snow
9:42 AM 21.2°F 21.2°F 100% 30.13 in 1.8 miles SSW 4.6 mph - N/A Snow Light Snow
9:45 AM 21.2°F 21.2°F 100% 30.13 in 1.8 miles SSW 4.6 mph - N/A   Overcast
9:46 AM 21.2°F 21.2°F 100% 30.14 in 1.8 miles SSW 4.6 mph - N/A   Light Freezing Drizzle
9:51 AM 21.2°F 21.2°F 100% 30.14 in 2.0 miles South 5.8 mph - N/A   Light Freezing Drizzle
9:55 AM 21.2°F 21.2°F 100% 30.14 in 1.8 miles SW 3.5 mph - N/A Snow Light Snow
9:58 AM 21.2°F 21.2°F 100% 30.25 in 2.0 miles SW 4.6 mph - 0.00 in Snow Light Snow
10:03 AM 21.2°F 21.2°F 100% 30.13 in 1.2 miles SW 4.6 mph - N/A Snow Light Snow
10:05 AM 21.2°F 21.2°F 100% 30.13 in 1.0 miles SSW 4.6 mph - N/A   Mist
10:15 AM 21.2°F 21.2°F 100% 30.14 in 1.5 miles SSW 3.5 mph - N/A   Light Freezing Drizzle
10:20 AM 21.2°F 21.2°F 100% 30.14 in 1.2 miles SSW 3.5 mph - N/A   Light Freezing Drizzle
10:21 AM 21.2°F 21.2°F 100% 30.14 in 1.2 miles SSW 3.5 mph - N/A Snow Light Snow
10:26 AM 21.2°F 21.2°F 100% 30.14 in 1.2 miles SSW 3.5 mph - N/A Snow Light Snow
10:31 AM 21.2°F 21.2°F 100% 30.14 in 1.0 miles SW 4.6 mph - N/A Snow Light Snow
10:36 AM 21.2°F 21.2°F 100% 30.14 in 1.0 miles SSW 3.5 mph - N/A Snow Light Snow
10:40 AM 21.2°F 21.2°F 100% 30.13 in 1.0 miles SSW 4.6 mph - N/A   Mist
10:41 AM 21.2°F 21.2°F 100% 30.13 in 1.0 miles SSW 3.5 mph - N/A   Light Freezing Drizzle
10:46 AM 21.2°F 21.2°F 100% 30.13 in 0.8 miles South 3.5 mph - N/A   Light Freezing Drizzle
10:48 AM 21.2°F 21.2°F 100% 30.13 in 0.8 miles South 4.6 mph - N/A Snow Light Snow
10:53 AM 21.2°F 21.2°F 100% 30.13 in 1.0 miles SW 4.6 mph - N/A Snow Light Snow
10:58 AM 21.7°F 21.7°F 100% 30.24 in 1.0 miles South 3.5 mph - 0.00 in Snow Light Snow
10:59 AM 21.2°F 21.2°F 100% 30.13 in 1.0 miles South 4.6 mph - N/A   Mist
11:00 AM 21.2°F 21.2°F 100% 30.13 in 1.0 miles South 4.6 mph - N/A   Light Freezing Drizzle
11:05 AM 21.2°F 21.2°F 100% 30.13 in 1.2 miles SSW 3.5 mph - N/A   Light Freezing Drizzle
11:10 AM 23.0°F 23.0°F 100% 30.13 in 3.0 miles SSW 3.5 mph - N/A   Light Freezing Drizzle
11:20 AM 23.0°F 23.0°F 100% 30.12 in 1.8 miles WSW 4.6 mph - N/A   Light Freezing Drizzle
11:21 AM 23.0°F 23.0°F 100% 30.12 in 1.8 miles SW 4.6 mph - N/A   Overcast
11:26 AM 23.0°F 23.0°F 100% 30.12 in 1.5 miles SW 4.6 mph - N/A   Overcast
11:31 AM 23.0°F 23.0°F 100% 30.12 in 1.8 miles SW 2.3 mph - N/A   Overcast
11:36 AM 23.0°F 23.0°F 100% 30.12 in 3.0 miles SSW 2.3 mph - N/A   Overcast
11:49 AM 23.0°F 23.0°F 100% 30.11 in 10.0 miles South 3.5 mph - N/A Snow Light Snow
11:51 AM 23.0°F 23.0°F 100% 30.11 in 10.0 miles South 4.6 mph - N/A   Overcast
11:52 AM 23.0°F 23.0°F 100% 30.11 in 9.0 miles South 3.5 mph - N/A Snow Light Snow
11:58 AM 22.8°F 22.8°F 100% 30.22 in 6.0 miles South 3.5 mph - 0.00 in Snow Light Snow
11:59 AM 23.0°F 23.0°F 100% 30.11 in 5.0 miles South 3.5 mph - N/A   Overcast
12:01 PM 23.0°F 23.0°F 100% 30.11 in 5.0 miles SSE 2.3 mph - N/A Snow Light Snow
12:02 PM 23.0°F 23.0°F 100% 30.11 in 5.0 miles SSE 2.3 mph - N/A   Overcast
12:58 PM 23.7°F 23.7°F 100% 30.20 in 3.0 miles SSE 2.3 mph - 0.00 in   Overcast
1:13 PM 23.0°F 23.0°F 100% 30.09 in 3.0 miles SSE 3.5 mph - N/A   Overcast
1:18 PM 23.0°F 23.0°F 100% 30.09 in 2.5 miles SE 3.5 mph - N/A   Overcast
1:31 PM 23.0°F 23.0°F 100% 30.08 in 2.5 miles SE 2.3 mph - N/A   Overcast
1:35 PM 23.0°F 23.0°F 100% 30.09 in 2.5 miles SE 2.3 mph - N/A   Overcast
1:45 PM 23.0°F 23.0°F 100% 30.08 in 3.0 miles SE 2.3 mph - N/A Snow Light Snow
1:50 PM 23.0°F 23.0°F 100% 30.08 in 2.5 miles SE 3.5 mph - N/A Snow Light Snow
1:58 PM 23.9°F 23.9°F 100% 30.19 in 2.0 miles SE 3.5 mph - 0.00 in Snow Light Snow
2:08 PM 23.0°F 23.0°F 100% 30.08 in 1.8 miles SE 3.5 mph - N/A Snow Light Snow
2:13 PM 23.0°F 23.0°F 100% 30.08 in 2.0 miles SE 3.5 mph - N/A Snow Light Snow
2:23 PM 23.0°F 23.0°F 100% 30.08 in 3.0 miles SE 3.5 mph - N/A Snow Light Snow
2:28 PM 23.0°F 23.0°F 100% 30.08 in 3.0 miles SE 3.5 mph - N/A Snow Light Snow
2:43 PM 23.0°F 23.0°F 100% 30.08 in 3.0 miles SE 2.3 mph - N/A Snow Light Snow
2:48 PM 23.0°F 23.0°F 100% 30.09 in 4.0 miles SE 2.3 mph - N/A Snow Light Snow
2:58 PM 23.7°F 23.7°F 100% 30.19 in 3.0 miles SE 2.3 mph - 0.00 in Snow Light Snow
3:03 PM 23.0°F 23.0°F 100% 30.08 in 3.0 miles SE 2.3 mph - N/A Snow Light Snow
3:08 PM 23.0°F 23.0°F 100% 30.08 in 2.5 miles SE 2.3 mph - N/A Snow Light Snow
3:49 PM 23.0°F 23.0°F 100% 30.08 in 2.0 miles SE 2.3 mph - N/A Snow Light Snow
3:58 PM 23.4°F 23.4°F 100% 30.19 in 2.5 miles ESE 2.3 mph - 0.00 in Snow Light Snow
4:03 PM 23.0°F 23.0°F 100% 30.08 in 1.8 miles ESE 2.3 mph - N/A Snow Light Snow
4:08 PM 23.0°F 23.0°F 100% 30.08 in 1.2 miles ESE 2.3 mph - N/A Snow Light Snow
4:13 PM 23.0°F 23.0°F 100% 30.08 in 1.5 miles ESE 2.3 mph - N/A Snow Light Snow
4:18 PM 23.0°F 23.0°F 100% 30.08 in 1.8 miles ESE 2.3 mph - N/A Snow Light Snow
4:23 PM 23.0°F 23.0°F 100% 30.08 in 2.0 miles ESE 1.2 mph - N/A Snow Light Snow
4:43 PM 23.0°F 23.0°F 100% 30.08 in 3.0 miles Calm Calm - N/A Snow Light Snow
4:58 PM 23.0°F 23.0°F 100% 30.19 in 4.0 miles Calm Calm - 0.01 in Snow Light Snow
5:58 PM 22.6°F 22.6°F 100% 30.19 in 8.0 miles Calm Calm - 0.00 in Snow Light Snow
6:33 PM 21.2°F 21.2°F 100% 30.09 in 5.0 miles Calm Calm - N/A   Mostly Cloudy
6:36 PM 21.2°F 21.2°F 100% 30.09 in 6.0 miles Calm Calm - N/A   Overcast
6:58 PM 21.0°F 21.0°F 100% 30.20 in 8.0 miles Calm Calm - 0.00 in   Scattered Clouds
7:58 PM 19.6°F 19.6°F 100% 30.22 in 10.0 miles Calm Calm - N/A   Overcast
8:48 PM 15.8°F 15.8°F 100% 30.10 in 1.2 miles Calm Calm - N/A   Mostly Cloudy
8:52 PM 15.8°F 15.8°F 100% 30.10 in 0.5 miles Calm Calm - N/A Fog Light Freezing Fog
8:57 PM 15.8°F 15.8°F 100% 30.10 in 0.8 miles Calm Calm - N/A   Mostly Cloudy
8:58 PM 15.3°F 15.3°F 100% 30.22 in 0.8 miles Calm Calm - N/A   Mostly Cloudy
9:03 PM 15.8°F 15.8°F 100% 30.11 in 4.0 miles Calm Calm - N/A   Mostly Cloudy
9:08 PM 15.8°F 15.8°F 100% 30.11 in 6.0 miles Calm Calm - N/A   Mostly Cloudy
9:18 PM 15.8°F 15.8°F 100% 30.11 in 9.0 miles Calm Calm - N/A   Mostly Cloudy
9:28 PM 14.0°F 14.0°F 100% 30.11 in 9.0 miles Calm Calm - N/A   Overcast
9:33 PM 14.0°F 14.0°F 100% 30.11 in 7.0 miles Calm Calm - N/A   Overcast
9:43 PM 15.8°F 15.8°F 100% 30.11 in 6.0 miles Calm Calm - N/A   Overcast
9:53 PM 15.8°F 15.8°F 100% 30.12 in 7.0 miles Calm Calm - N/A   Overcast
9:58 PM 17.1°F 17.1°F 100% 30.24 in 9.0 miles Calm Calm - N/A   Overcast
10:13 PM 17.6°F 17.6°F 100% 30.12 in 1.2 miles Calm Calm - N/A   Overcast
10:18 PM 17.6°F 17.6°F 100% 30.12 in 0.8 miles Calm Calm - N/A   Overcast
10:21 PM 17.6°F 17.6°F 100% 30.12 in 0.8 miles Calm Calm - N/A Snow Light Snow
10:26 PM 17.6°F 17.6°F 100% 30.12 in 1.8 miles Calm Calm - N/A Snow Light Snow
10:30 PM 17.6°F 17.6°F 100% 30.12 in 2.5 miles Calm Calm - N/A   Overcast
10:31 PM 17.6°F 17.6°F 100% 30.12 in 2.0 miles Calm Calm - N/A   Light Freezing Drizzle
10:36 PM 17.6°F 17.6°F 100% 30.12 in 1.0 miles Calm Calm - N/A   Light Freezing Drizzle
10:41 PM 17.6°F 17.6°F 100% 30.13 in 0.5 miles Calm Calm - N/A Fog Light Freezing Drizzle
10:56 PM 17.6°F 17.6°F 100% 30.13 in 0.5 miles Calm Calm - N/A Fog Light Freezing Drizzle
10:58 PM 18.0°F 18.0°F 100% 30.25 in 0.5 miles Calm Calm - 0.00 in Fog Light Freezing Drizzle
11:00 PM 17.6°F 17.6°F 100% 30.13 in 0.8 miles Calm Calm - N/A   Mist
11:05 PM 19.4°F 19.4°F 100% 30.13 in 0.5 miles Calm Calm - N/A Fog Light Freezing Fog
11:12 PM 19.4°F 19.4°F 100% 30.13 in 0.5 miles Calm Calm - N/A Fog , Snow Light Freezing Fog
11:23 PM 19.4°F 19.4°F 100% 30.14 in 0.5 miles Calm Calm - N/A Fog Light Freezing Fog
11:24 PM 19.4°F 19.4°F 100% 30.14 in 0.5 miles Calm Calm - N/A Fog Light Freezing Drizzle
11:29 PM 19.4°F 19.4°F 100% 30.13 in 0.5 miles Calm Calm - N/A Fog Light Freezing Drizzle
11:44 PM 19.4°F 19.4°F 100% 30.13 in 0.8 miles Calm Calm - N/A   Light Freezing Drizzle
11:49 PM 19.4°F 19.4°F 100% 30.13 in 0.8 miles Calm Calm - N/A   Light Freezing Drizzle
11:53 PM 19.4°F 19.4°F 100% 30.13 in 1.0 miles Calm Calm - N/A   Overcast
11:58 PM 19.4°F 19.4°F 100% 30.25 in 1.0 miles Calm Calm - 0.00 in   Overcast
Moon Phase
Dec. 29 Jan. 04 Jan. 11 Jan. 18 Jan. 26
Sunrise:07:38 AM (PST) Moon Rise:05:52 PM (PST)12/29
Sunset:04:07 PM (PST) Moon Set:08:08 AM (PST)12/29

Copyright © 2014 The Weather Underground, Inc.